Weather History for Marion, VA

Change the Weather History Date:

Monday, May 27, 2013

  Actual Average (KGEV) Record (KGEV)
Temperature  
Mean Temperature 63 °F -  
Max Temperature 79 °F 71 °F 82 °F (1991)
Min Temperature 48 °F 50 °F 32 °F (1988)
Degree Days  
Heating Degree Days 2    
Growing Degree Days 13 (Base 50)    
Moisture  
Dew Point 53 °F    
Average Humidity 70    
Maximum Humidity 100    
Minimum Humidity 47    
Precipitation  
Precipitation 0.00 in - - ()
Sea Level Pressure  
Sea Level Pressure 30.27 in    
Wind  
Wind Speed 1 mph (SE)    
Max Wind Speed 12 mph    
Max Gust Speed -    
Visibility 10 miles    
Events      
Averages and records for this station are not official NWS values.
T = Trace of Precipitation, MM = Missing Value Source: NWS Daily Summary

Daily Weather History Graph

Daily Weather History Graph

Search for Another Location

Airport:

Trip Planner

Search our weather history database for the weather conditions in past years. The results will help you decide how hot, cold, wet, or windy it might be!

Date:

Astronomy

May. 27, 2013 Rise Set
Actual Time 6:09 AM EDT 8:35 PM EDT
Civil Twilight 5:39 AM EDT 9:05 PM EDT
Nautical Twilight 5:02 AM EDT 9:42 PM EDT
Astronomical Twilight 4:22 AM EDT 10:23 PM EDT
Moon 11:15 PM EDT (5/27) 8:44 AM EDT (5/27)
Length of Visible Light 15h 26m
Length of Day
14h 26m
Waning Gibbous, 91% of the Moon is Illuminated
May 27
Waning Gibbous
May 31
Last Quarter
Jun 8
New
Jun 16
First Quarter
Jun 23
Full

Hourly Weather History & Observations

Time (EDT) Temp. Dew Point Humidity Pressure Visibility Wind Dir Wind Speed Gust Speed Precip Events Conditions
12:15 AM 51.4 °F 50.2 °F 95% 30.30 in 10.0 mi Calm Calm - N/A   Clear
12:35 AM 51.1 °F 50.4 °F 97% 30.30 in 10.0 mi Calm Calm - N/A   Scattered Clouds
12:55 AM 51.1 °F 50.0 °F 96% 30.30 in 10.0 mi Calm Calm - N/A   Mostly Cloudy
1:15 AM 50.7 °F 50.0 °F 97% 30.30 in 10.0 mi Calm Calm - N/A   Overcast
1:35 AM 50.2 °F 50.0 °F 99% 30.30 in 10.0 mi Calm Calm - N/A   Mostly Cloudy
1:55 AM 50.2 °F 50.0 °F 99% 30.30 in 10.0 mi Calm Calm - N/A   Mostly Cloudy
2:15 AM 50.0 °F 50.0 °F 100% 30.30 in 10.0 mi Calm Calm - N/A   Scattered Clouds
2:35 AM 50.2 °F 50.0 °F 99% 30.30 in 10.0 mi Calm Calm - N/A   Clear
2:55 AM 50.0 °F 49.1 °F 97% 30.29 in 10.0 mi Calm Calm - N/A   Scattered Clouds
3:15 AM 50.0 °F 49.8 °F 99% 30.29 in 10.0 mi Calm Calm - N/A   Mostly Cloudy
3:35 AM 49.8 °F 49.1 °F 97% 30.29 in 10.0 mi Calm Calm - N/A   Scattered Clouds
3:55 AM 49.6 °F 48.9 °F 97% 30.28 in 10.0 mi Calm Calm - N/A   Scattered Clouds
4:15 AM 48.6 °F 48.6 °F 100% 30.29 in 10.0 mi Calm Calm - N/A   Clear
4:35 AM 48.9 °F 48.2 °F 97% 30.29 in 10.0 mi Calm Calm - N/A   Clear
4:55 AM 49.1 °F 47.5 °F 94% 30.30 in 10.0 mi Calm Calm - N/A   Scattered Clouds
5:15 AM 48.6 °F 47.5 °F 96% 30.30 in 10.0 mi Calm Calm - N/A   Clear
5:35 AM 48.4 °F 47.5 °F 97% 30.30 in 10.0 mi Calm Calm - N/A   Clear
5:55 AM 48.7 °F 47.5 °F 95% 30.30 in 10.0 mi Calm Calm - N/A   Mostly Cloudy
6:15 AM 49.1 °F 48.2 °F 97% 30.30 in 10.0 mi Calm Calm - N/A   Mostly Cloudy
6:35 AM 49.8 °F 47.7 °F 92% 30.30 in 10.0 mi Calm Calm - N/A   Overcast
6:55 AM 50.4 °F 49.1 °F 95% 30.31 in 10.0 mi Calm Calm - N/A   Overcast
7:15 AM 51.1 °F 48.7 °F 92% 30.31 in 10.0 mi Calm Calm - N/A   Overcast
7:35 AM 51.6 °F 49.3 °F 92% 30.32 in 10.0 mi Calm Calm - N/A   Overcast
7:55 AM 52.0 °F 48.7 °F 89% 30.33 in 10.0 mi ESE 3.5 mph - N/A   Overcast
8:15 AM 52.7 °F 48.4 °F 85% 30.33 in 10.0 mi Calm Calm - N/A   Overcast
8:35 AM 53.4 °F 49.3 °F 86% 30.34 in 10.0 mi Calm Calm - N/A   Overcast
8:55 AM 56.3 °F 48.6 °F 75% 30.33 in 10.0 mi East 4.6 mph - N/A   Overcast
9:15 AM 59.0 °F 48.2 °F 67% 30.33 in 10.0 mi East 4.6 mph - N/A   Overcast
9:35 AM 60.6 °F 45.9 °F 58% 30.32 in 10.0 mi ENE 5.8 mph - N/A   Mostly Cloudy
9:55 AM 62.8 °F 44.1 °F 50% 30.32 in 10.0 mi NE 8.1 mph - N/A   Mostly Cloudy
10:15 AM 63.7 °F 47.8 °F 56% 30.32 in 10.0 mi ENE 4.6 mph - N/A   Scattered Clouds
10:35 AM 65.5 °F 50.2 °F 58% 30.31 in 10.0 mi East 4.6 mph - N/A   Clear
10:55 AM 67.5 °F 50.9 °F 55% 30.30 in 10.0 mi ENE 4.6 mph - N/A   Mostly Cloudy
11:15 AM 68.5 °F 52.2 °F 56% 30.30 in 10.0 mi ENE 5.8 mph - N/A   Mostly Cloudy
11:35 AM 67.8 °F 51.1 °F 55% 30.30 in 10.0 mi ENE 4.6 mph - N/A   Overcast
11:55 AM 70.0 °F 53.1 °F 55% 30.30 in 10.0 mi NE 3.5 mph - N/A   Mostly Cloudy
12:15 PM 70.9 °F 52.7 °F 53% 30.30 in 10.0 mi Calm Calm - N/A   Overcast
12:35 PM 72.0 °F 53.2 °F 52% 30.30 in 10.0 mi Calm Calm - N/A   Overcast
12:55 PM 72.5 °F 54.3 °F 53% 30.29 in 10.0 mi Calm Calm - N/A   Mostly Cloudy
1:15 PM 74.7 °F 54.1 °F 49% 30.28 in 10.0 mi Calm Calm - N/A   Mostly Cloudy
1:35 PM 75.0 °F 55.8 °F 51% 30.27 in 10.0 mi SE 3.5 mph - N/A   Mostly Cloudy
1:55 PM 75.7 °F 57.9 °F 54% 30.26 in 10.0 mi Calm Calm - N/A   Mostly Cloudy
2:15 PM 76.6 °F 57.0 °F 51% 30.25 in 10.0 mi Calm Calm - N/A   Mostly Cloudy
2:35 PM 76.3 °F 55.9 °F 49% 30.25 in 10.0 mi SSW 4.6 mph - N/A   Mostly Cloudy
2:55 PM 76.8 °F 58.3 °F 53% 30.25 in 10.0 mi Calm Calm - N/A   Mostly Cloudy
3:15 PM 76.5 °F 57.2 °F 51% 30.24 in 10.0 mi WSW 5.8 mph - N/A   Overcast
3:35 PM 76.6 °F 57.6 °F 52% 30.23 in 10.0 mi SE 3.5 mph - N/A   Overcast
3:55 PM 78.6 °F 56.7 °F 47% 30.23 in 10.0 mi Calm Calm - N/A   Mostly Cloudy
4:15 PM 78.8 °F 56.8 °F 47% 30.22 in 10.0 mi West 4.6 mph - N/A   Scattered Clouds
4:35 PM 77.7 °F 56.7 °F 48% 30.22 in 10.0 mi SSW 5.8 mph - N/A   Mostly Cloudy
4:55 PM 78.8 °F 57.7 °F 48% 30.22 in 10.0 mi West 5.8 mph - N/A   Mostly Cloudy
5:15 PM 77.9 °F 56.3 °F 47% 30.22 in 10.0 mi SW 4.6 mph - N/A   Scattered Clouds
5:35 PM 75.6 °F 56.7 °F 52% 30.22 in 10.0 mi WSW 5.8 mph - N/A   Mostly Cloudy
5:55 PM 76.5 °F 57.7 °F 52% 30.22 in 10.0 mi West 8.1 mph - N/A   Mostly Cloudy
6:15 PM 76.3 °F 56.1 °F 50% 30.22 in 10.0 mi South 3.5 mph - N/A   Scattered Clouds
6:35 PM 76.3 °F 55.9 °F 49% 30.21 in 10.0 mi South 11.5 mph - N/A   Scattered Clouds
6:55 PM 75.6 °F 56.5 °F 51% 30.20 in 10.0 mi SSE 3.5 mph - N/A   Scattered Clouds
7:15 PM 75.2 °F 56.5 °F 52% 30.19 in 10.0 mi SSE 4.6 mph - N/A   Scattered Clouds
7:35 PM 73.8 °F 56.7 °F 55% 30.20 in 10.0 mi Calm Calm - N/A   Scattered Clouds
7:55 PM 73.2 °F 56.7 °F 56% 30.20 in 10.0 mi Calm Calm - N/A   Overcast
8:15 PM 72.9 °F 56.5 °F 56% 30.21 in 10.0 mi Calm Calm - N/A   Overcast
8:35 PM 72.1 °F 56.3 °F 57% 30.22 in 10.0 mi SSW 3.5 mph - N/A   Overcast
8:55 PM 71.8 °F 56.1 °F 58% 30.22 in 10.0 mi Calm Calm - N/A   Overcast
9:15 PM 70.7 °F 57.0 °F 62% 30.22 in 10.0 mi Calm Calm - N/A   Overcast
9:35 PM 70.2 °F 57.0 °F 63% 30.23 in 10.0 mi NNE 3.5 mph - N/A   Mostly Cloudy
9:55 PM 70.2 °F 56.7 °F 62% 30.24 in 10.0 mi Calm Calm - N/A   Scattered Clouds
10:15 PM 67.3 °F 57.4 °F 70% 30.25 in 10.0 mi NW 3.5 mph - N/A   Scattered Clouds
10:35 PM 67.8 °F 57.2 °F 69% 30.25 in 10.0 mi Calm Calm - N/A   Scattered Clouds
10:55 PM 66.6 °F 57.2 °F 72% 30.25 in 10.0 mi Calm Calm - N/A   Clear
11:15 PM 66.9 °F 57.4 °F 71% 30.25 in 10.0 mi Calm Calm - N/A   Clear
11:35 PM 66.9 °F 57.4 °F 71% 30.25 in 10.0 mi Calm Calm - N/A   Scattered Clouds
11:55 PM 67.3 °F 57.2 °F 70% 30.25 in 10.0 mi Calm Calm - N/A   Scattered Clouds